TimeAKST,TemperatureF,Dew PointF,Humidity,Sea Level PressureIn,VisibilityMPH,Wind Direction,Wind SpeedMPH,Gust SpeedMPH,PrecipitationIn,Events,Conditions,WindDirDegrees,DateUTC
12:54 AM,39.9,33.1,77,29.13,10.0,East,34.5,51.8,N/A,,Overcast,90,2013-03-07 09:54:00
1:54 AM,39.9,32.0,73,29.08,10.0,East,34.5,48.3,N/A,,Overcast,100,2013-03-07 10:54:00
2:54 AM,39.0,30.9,73,29.05,10.0,East,32.2,47.2,N/A,,Overcast,90,2013-03-07 11:54:00
3:54 AM,37.9,30.9,76,29.01,10.0,East,33.4,49.5,N/A,,Overcast,90,2013-03-07 12:54:00
4:54 AM,37.0,30.9,79,28.99,10.0,East,32.2,47.2,N/A,,Overcast,90,2013-03-07 13:54:00
5:54 AM,37.0,32.0,82,28.95,10.0,East,27.6,39.1,N/A,,Overcast,90,2013-03-07 14:54:00
6:54 AM,37.0,32.0,82,28.91,10.0,East,32.2,43.7,N/A,,Overcast,90,2013-03-07 15:54:00
7:54 AM,37.0,30.9,79,28.89,10.0,East,34.5,50.6,N/A,,Overcast,90,2013-03-07 16:54:00
8:54 AM,37.0,30.9,79,28.87,10.0,East,28.8,46.0,N/A,,Mostly Cloudy,100,2013-03-07 17:54:00
9:54 AM,37.9,30.9,76,28.83,10.0,East,34.5,48.3,N/A,,Mostly Cloudy,100,2013-03-07 18:54:00
10:54 AM,37.0,32.0,82,28.85,10.0,East,34.5,49.5,N/A,,Mostly Cloudy,100,2013-03-07 19:54:00
11:54 AM,37.9,32.0,79,28.85,10.0,East,40.3,54.1,N/A,,Mostly Cloudy,100,2013-03-07 20:54:00
12:54 PM,39.0,30.9,73,28.82,10.0,East,38.0,57.5,N/A,,Scattered Clouds,90,2013-03-07 21:54:00
1:54 PM,39.0,32.0,76,28.84,10.0,East,32.2,46.0,N/A,,Scattered Clouds,100,2013-03-07 22:54:00
2:54 PM,39.0,34.0,82,28.86,10.0,ESE,19.6,32.2,0.00,Rain,Light Rain,110,2013-03-07 23:54:00
3:10 PM,39.2,35.6,87,28.86,9.0,ESE,12.7,26.5,0.00,Rain,Light Rain,120,2013-03-08 00:10:00
3:54 PM,43.0,32.0,65,28.88,10.0,SE,31.1,40.3,0.00,,Mostly Cloudy,140,2013-03-08 00:54:00
4:01 PM,41.0,33.8,76,28.89,10.0,SSE,35.7,47.2,N/A,,Scattered Clouds,150,2013-03-08 01:01:00
4:54 PM,39.9,30.9,70,28.89,10.0,SE,34.5,42.6,N/A,,Partly Cloudy,130,2013-03-08 01:54:00
5:54 PM,39.0,30.9,73,28.93,10.0,SE,34.5,46.0,N/A,,Mostly Cloudy,140,2013-03-08 02:54:00
6:51 PM,35.6,33.8,93,28.94,4.0,SE,33.4,49.5,0.00,Rain-Snow,Light Rain,140,2013-03-08 03:51:00
6:54 PM,36.0,33.1,89,28.94,4.0,SE,33.4,43.7,0.00,Rain-Snow,Light Rain,140,2013-03-08 03:54:00
7:14 PM,35.6,33.8,93,28.92,10.0,ESE,21.9,39.1,0.00,Rain,Light Rain,120,2013-03-08 04:14:00
7:54 PM,37.0,32.0,82,28.94,10.0,SE,29.9,43.7,0.01,Rain,Light Rain,130,2013-03-08 04:54:00
8:54 PM,37.9,30.0,73,28.92,10.0,ESE,15.0,27.6,0.00,,Overcast,110,2013-03-08 05:54:00
9:54 PM,37.9,30.0,73,28.92,10.0,ESE,24.2,42.6,0.00,Rain,Light Rain,120,2013-03-08 06:54:00
10:54 PM,37.9,30.0,73,28.92,10.0,ESE,26.5,40.3,0.00,,Mostly Cloudy,120,2013-03-08 07:54:00
11:54 PM,37.9,30.9,76,28.95,10.0,ESE,25.3,42.6,N/A,,Mostly Cloudy,120,2013-03-08 08:54:00